Weather reports worldwide

Advertisment
Twenthe, Netherlands (6290): temperature & dewpoint: 22.01.2020 07:00:00 - 28.01.2020 07:00:00 (CET)Twenthe, Netherlands (6290): temperature 5cm: 22.01.2020 07:00:00 - 28.01.2020 07:00:00 (CET)Twenthe, Netherlands (6290): wind speed & gusts: 22.01.2020 07:00:00 - 28.01.2020 07:00:00 (CET)Twenthe, Netherlands (6290): wind direction: 22.01.2020 07:00:00 - 28.01.2020 07:00:00 (CET)Twenthe, Netherlands (6290): reduced air pressure: 22.01.2020 07:00:00 - 28.01.2020 07:00:00 (CET)Twenthe, Netherlands (6290): visibility: 22.01.2020 07:00:00 - 28.01.2020 07:00:00 (CET)Twenthe, Netherlands (6290): precipitation: 22.01.2020 07:00:00 - 28.01.2020 07:00:00 (CET)
Date & Time tt [°C] td [°C] tt 5cm [°C] ff [km/h] ff [kn] fx [km/h] fx [kn] dd ppp [hPa] vv [km] rr [mm]
28.01.2020 07:00:00 5,4 4,0 4,8 18 10 36 19 S 989,6 50 0,0
28.01.2020 06:00:00 5,4 3,8 5,0 18 10 32 18 SSW 990,4 50 0,0
28.01.2020 05:00:00 6,4 4,4 6,0 25 14 40 21 SSW 991,2 48 0,0
28.01.2020 04:00:00 6,7 5,0 6,2 14 8 40 21 SW 991,6 49 0,0
28.01.2020 03:00:00 7,1 4,5 6,7 25 14 43 23 SW 992,1 50 0,0
28.01.2020 02:00:00 7,7 5,6 7,2 25 14 50 27 SSW 991,5 50 0,0
28.01.2020 01:00:00 7,3 5,9 6,9 25 14 47 25 S 992,4 48 0,1
28.01.2020 00:00:00 6,8 5,8 6,5 22 12 32 18 SSE 993,5 13 2,1
27.01.2020 23:00:00 6,7 5,5 6,4 18 10 25 14 SSE 995,6 21 0,2
27.01.2020 22:00:00 6,7 5,4 6,3 14 8 25 14 SSE 997,2 33 0,1
27.01.2020 21:00:00 6,7 5,6 6,2 14 8 29 16 SSE 998,8 45 0,4
27.01.2020 20:00:00 6,7 5,4 5,9 14 8 22 12 S 1000,0 50 0,0
27.01.2020 19:00:00 7,7 6,5 7,2 14 8 22 12 S 1001,2 47 0,0
27.01.2020 18:00:00 7,7 6,8 7,2 11 6 22 12 S 1001,9 36 0,0
27.01.2020 17:00:00 8,2 6,9 7,8 14 8 25 14 SSW 1002,6 50 0,0
27.01.2020 16:00:00 8,4 7,1 8,3 14 8 25 14 SSW 1003,2 46 0,0
27.01.2020 15:00:00 8,4 7,4 8,3 14 8 22 12 S 1003,5 44 0,0
27.01.2020 14:00:00 8,2 7,4 8,2 14 8 29 16 S 1004,5 14 0,0
27.01.2020 13:00:00 8,5 7,2 8,6 18 10 29 16 SSW 1005,3 38 0,0
27.01.2020 12:00:00 8,7 7,4 8,5 18 10 25 14 SSW 1006,0 40 0,0
27.01.2020 11:00:00 8,0 7,1 7,8 18 10 32 18 SSW 1006,8 44 0,0
27.01.2020 10:00:00 7,5 7,0 7,4 18 10 29 16 S 1006,8 3,7 0,4
27.01.2020 09:00:00 7,4 6,9 7,2 22 12 36 19 S 1007,0 7 0,3
27.01.2020 08:00:00 7,2 6,6 7,0 18 10 32 18 S 1007,3 8 0,2
27.01.2020 07:00:00 7,2 6,5 6,9 22 12 36 19 S 1007,6 8 0,3
27.01.2020 06:00:00 6,9 6,3 6,7 22 12 36 19 S 1007,9 3,8 0,3
27.01.2020 05:00:00 6,9 5,8 6,6 22 12 43 23 S 1008,2 9 1,1
27.01.2020 04:00:00 7,2 5,4 6,8 25 14 43 23 S 1008,7 12 0,4
27.01.2020 03:00:00 7,9 4,6 7,3 29 16 40 21 SSW 1009,4 20 0,0
27.01.2020 02:00:00 7,7 4,6 7,0 22 12 36 19 S 1010,1 17 0,0
27.01.2020 01:00:00 7,4 4,5 6,9 22 12 32 18 S 1010,8 19 0,0
27.01.2020 00:00:00 7,4 4,7 6,8 18 10 29 16 S 1011,4 19 0,0
26.01.2020 23:00:00 7,0 4,3 5,9 14 8 29 16 S 1011,8 20 0,0
26.01.2020 22:00:00 8,0 4,7 7,5 18 10 29 16 S 1012,4 23 0,0
26.01.2020 21:00:00 7,9 4,7 7,3 18 10 25 14 S 1012,8 21 0,0
26.01.2020 20:00:00 6,8 4,2 6,0 18 10 25 14 S 1013,0 15 0,0
26.01.2020 19:00:00 5,6 3,9 4,2 11 6 18 10 SSE 1013,2 11 0,0
26.01.2020 18:00:00 6,6 4,2 5,8 14 8 22 12 S 1013,5 13 0,0
26.01.2020 17:00:00 6,6 4,3 5,7 14 8 22 12 S 1013,5 14 0,0
26.01.2020 16:00:00 8,2 5,1 8,2 14 8 22 12 S 1013,8 14 0,0
26.01.2020 15:00:00 7,5 4,6 7,3 14 8 29 16 S 1014,2 14 0,0
26.01.2020 14:00:00 7,4 4,3 8,2 22 12 29 16 SSW 1014,6 15 0,0
26.01.2020 13:00:00 5,7 3,9 6,1 14 8 18 10 S 1015,2 12 0,0
26.01.2020 12:00:00 4,2 3,2 4,4 11 6 18 10 SSE 1015,9 10 0,0
26.01.2020 11:00:00 3,1 2,8 3,0 11 6 18 10 SSE 1016,7 6 0,0
26.01.2020 10:00:00 2,4 2,4 2,5 11 6 18 10 SSE 1016,6 4,5 0,0
26.01.2020 09:00:00 1,7 1,7 1,8 11 6 18 10 SSE 1016,9 0,9 0,0
26.01.2020 08:00:00 1,7 1,7 1,7 11 6 18 10 SSE 1017,1 0,5 0,0
26.01.2020 07:00:00 1,7 1,7 1,7 11 6 22 12 SSE 1017,2 0,4 0,0
26.01.2020 06:00:00 1,7 1,7 1,7 11 6 22 12 SSE 1017,5 0,3 0,0
26.01.2020 05:00:00 1,3 1,3 1,4 11 6 18 10 ESE 1017,6 0,2 0,0
26.01.2020 04:00:00 1,2 1,2 1,2 7 4 11 6 SE 1018,3 0,4 0,0
26.01.2020 03:00:00 0,8 0,8 0,9 7 4 11 6 SE 1018,9 0,5 0,0
26.01.2020 02:00:00 0,8 0,4 0,9 7 4 14 8 SE 1019,4 3,7 0,0
26.01.2020 01:00:00 1,1 0,4 0,9 7 4 11 6 SSE 1019,9 3,1 0,0
26.01.2020 00:00:00 0,7 0,7 0,6 4 2 7 4 SSE 1020,1 2,5 0,0
25.01.2020 23:00:00 0,9 0,7 1,0 4 2 11 6 S 1020,5 2,5 0,0
25.01.2020 22:00:00 0,8 0,4 0,8 7 4 14 8 SSW 1020,8 2,6 0,0
25.01.2020 21:00:00 0,5 0,3 0,6 7 4 18 10 S 1021,0 2,2 0,0
25.01.2020 20:00:00 0,6 0,0 0,6 7 4 14 8 SSW 1021,3 3,2 0,0
25.01.2020 19:00:00 0,8 0,1 0,8 7 4 14 8 SW 1021,0 3,8 0,0
25.01.2020 18:00:00 1,0 0,5 1,1 7 4 14 8 S 1020,7 1,5 0,0
25.01.2020 17:00:00 1,0 0,2 1,1 7 4 11 6 SW 1020,8 2,6 0,0
25.01.2020 16:00:00 1,1 0,2 1,2 7 4 14 8 SSW 1021,1 3,3 0,0
25.01.2020 15:00:00 1,2 -0,3 1,4 11 6 18 10 SW 1021,5 3,8 0,0
25.01.2020 14:00:00 1,8 0,3 2,2 11 6 22 12 S 1021,9 4,6 0,0
25.01.2020 13:00:00 1,5 0,4 1,8 11 6 22 12 S 1022,2 3,4 0,0
25.01.2020 12:00:00 1,4 0,5 1,8 14 8 18 10 S 1022,7 3,8 0,0
25.01.2020 11:00:00 1,3 0,4 1,4 11 6 22 12 S 1022,8 4,4 0,0
25.01.2020 10:00:00 0,9 0,4 1,1 11 6 18 10 S 1022,5 3,3 0,0
25.01.2020 09:00:00 0,8 0,3 0,8 11 6 25 14 S 1022,3 3,1 0,0
25.01.2020 08:00:00 0,6 0,3 0,6 11 6 18 10 S 1022,0 2,1 0,0
25.01.2020 07:00:00 0,6 0,1 0,6 7 4 14 8 S 1022,1 2,0 0,0
25.01.2020 06:00:00 0,5 0,0 0,6 11 6 18 10 S 1021,8 1,7 0,0
25.01.2020 05:00:00 0,5 0,2 0,5 11 6 18 10 S 1021,7 1,9 0,0
25.01.2020 04:00:00 0,5 0,0 0,5 7 4 22 12 S 1022,2 2,2 0,0
25.01.2020 03:00:00 0,5 -0,1 0,6 14 8 22 12 S 1022,4 1,9 0,0
25.01.2020 02:00:00 0,6 -0,1 0,7 14 8 22 12 SSW 1022,7 2,7 0,0
25.01.2020 01:00:00 0,9 0,4 0,9 14 8 22 12 SSW 1022,7 2,6 0,0
25.01.2020 00:00:00 1,2 0,6 1,2 14 8 22 12 SSW 1022,9 3,7 0,0
24.01.2020 23:00:00 1,3 0,8 1,3 11 6 18 10 SSW 1023,1 2,7 0,0
24.01.2020 22:00:00 1,3 0,6 1,4 14 8 18 10 SSW 1023,2 3,9 0,0
24.01.2020 21:00:00 1,3 0,7 1,3 7 4 18 10 SSW 1023,2 4,8 0,0
24.01.2020 20:00:00 1,1 0,5 1,1 7 4 18 10 SW 1023,4 6 0,0
24.01.2020 19:00:00 1,0 0,2 0,9 11 6 18 10 S 1023,2 7 0,0
24.01.2020 18:00:00 1,1 0,5 1,1 7 4 18 10 SSW 1023,0 6 0,0
24.01.2020 17:00:00 1,1 0,7 1,2 14 8 22 12 SSW 1022,7 3,6 0,0
24.01.2020 16:00:00 1,1 0,7 1,2 14 8 22 12 SW 1022,5 3,5 0,0
24.01.2020 15:00:00 1,4 0,7 1,6 11 6 22 12 SW 1022,6 5 0,0
24.01.2020 14:00:00 1,4 0,9 1,7 11 6 14 8 WSW 1023,7 2,8 0,0
24.01.2020 13:00:00 1,2 0,8 1,4 7 4 18 10 SW 1024,0 2,0 0,0
24.01.2020 12:00:00 1,4 0,6 1,5 11 6 14 8 SSW 1024,1 2,8 0,0
24.01.2020 11:00:00 1,1 0,5 1,1 7 4 14 8 SW 1024,7 2,3 0,0
24.01.2020 10:00:00 0,9 0,4 1,0 11 6 18 10 SSW 1024,5 2,4 0,0
24.01.2020 09:00:00 1,1 0,8 1,1 11 6 22 12 SW 1023,8 1,9 0,0
24.01.2020 08:00:00 1,1 1,0 1,3 11 6 18 10 SSW 1023,7 1,0 0,0
24.01.2020 07:00:00 1,6 1,4 1,6 14 8 18 10 SW 1023,8 1,2 0,0
24.01.2020 06:00:00 1,5 0,9 1,4 11 6 14 8 SW 1024,0 1,8 0,0
24.01.2020 05:00:00 1,6 0,2 1,4 11 6 18 10 SW 1024,2 3,7 0,0
24.01.2020 04:00:00 1,6 0,5 1,5 4 2 7 4 SW 1024,5 3,8 0,0
24.01.2020 03:00:00 1,4 1,3 1,5 0 0 4 2 N 1025,3 2,1 0,0
24.01.2020 02:00:00 1,3 1,3 1,4 4 2 7 4 NNE 1025,9 1,7 0,0
24.01.2020 01:00:00 1,4 1,4 1,5 0 0 4 2 N 1026,4 2,0 0,0
24.01.2020 00:00:00 1,4 1,4 1,2 0 0 7 4 N 1026,8 1,4 0,0
23.01.2020 23:00:00 1,4 1,3 0,6 4 2 4 2 NE 1027,1 0,9 0,0
23.01.2020 22:00:00 1,9 1,9 1,8 0 0 4 2 N 1027,6 2,0 0,0
23.01.2020 21:00:00 2,0 1,9 2,1 4 2 7 4 N 1028,4 1,9 0,0
23.01.2020 20:00:00 1,9 1,9 2,0 4 2 7 4 N 1028,6 2,0 0,0
23.01.2020 19:00:00 1,8 1,7 1,8 4 2 7 4 NNE 1028,9 2,1 0,0
23.01.2020 18:00:00 1,8 1,7 1,9 4 2 4 2 NNE 1029,3 2,0 0,0
23.01.2020 17:00:00 1,8 1,5 2,0 4 2 7 4 ESE 1029,7 2,3 0,0
23.01.2020 16:00:00 2,1 1,7 2,4 4 2 11 6 S 1030,2 4,7 0,0
23.01.2020 15:00:00 2,5 2,0 3,3 7 4 11 6 ESE 1030,9 6 0,0
23.01.2020 14:00:00 2,4 2,4 3,0 4 2 11 6 S 1031,7 3,1 0,0
23.01.2020 13:00:00 2,1 2,1 3,1 7 4 14 8 ESE 1032,5 0,3 0,0
23.01.2020 12:00:00 1,9 1,8 2,7 4 2 11 6 ESE 1033,4 0,2 0,0
23.01.2020 11:00:00 1,4 1,4 2,1 4 2 7 4 SE 1034,1 0,2 0,0
23.01.2020 10:00:00 1,2 1,2 1,7 4 2 7 4 SSE 1034,3 0,2 0,0
23.01.2020 09:00:00 1,5 1,5 1,8 4 2 7 4 ESE 1034,4 0,1 0,0
23.01.2020 08:00:00 2,2 2,2 2,3 4 2 11 6 SSE 1034,3 0,2 0,0
23.01.2020 07:00:00 2,4 2,4 2,4 4 2 11 6 SE 1034,6 0,7 0,0
23.01.2020 06:00:00 2,6 2,6 2,6 7 4 7 4 SSE 1034,8 0,3 0,0
23.01.2020 05:00:00 2,8 2,8 2,9 7 4 7 4 SSE 1035,4 0,2 0,0
23.01.2020 04:00:00 3,1 3,1 3,1 4 2 7 4 S 1035,6 0,6 0,0
23.01.2020 03:00:00 3,2 3,2 3,2 4 2 7 4 S 1035,8 0,3 0,0
23.01.2020 02:00:00 3,3 3,3 3,2 4 2 7 4 S 1036,4 0,8 0,0
23.01.2020 01:00:00 3,3 3,3 3,3 4 2 7 4 S 1036,7 0,4 0,0
23.01.2020 00:00:00 3,2 3,2 3,3 4 2 7 4 SE 1036,8 0,2 0,0
22.01.2020 23:00:00 3,3 3,3 3,3 4 2 7 4 SSW 1036,6 0,2 0,0
22.01.2020 22:00:00 3,3 3,3 3,3 4 2 7 4 SSW 1036,6 0,2 0,0
22.01.2020 21:00:00 3,6 3,5 3,4 4 2 7 4 S 1036,7 0,9 0,0
22.01.2020 20:00:00 3,5 3,5 3,0 4 2 7 4 SSW 1036,5 1,2 0,0
22.01.2020 19:00:00 3,9 3,9 3,9 4 2 7 4 S 1036,4 1,0 0,1
22.01.2020 18:00:00 3,9 3,9 4,0 4 2 11 6 S 1035,9 1,8 0,1
22.01.2020 17:00:00 3,9 3,9 3,9 7 4 11 6 SSW 1035,5 1,0 0,0
22.01.2020 16:00:00 3,8 3,8 4,0 7 4 14 8 SW 1035,6 1,4 0,0
22.01.2020 15:00:00 4,0 4,0 4,3 7 4 11 6 SW 1035,7 0,9 0,0
22.01.2020 14:00:00 3,6 3,6 4,2 7 4 14 8 SW 1035,9 0,4 0,0
22.01.2020 13:00:00 3,1 3,1 3,5 7 4 14 8 WSW 1035,9 0,3 0,0
22.01.2020 12:00:00 2,6 2,6 3,0 11 6 14 8 SW 1036,4 0,8 0,0
22.01.2020 11:00:00 1,9 1,9 2,2 7 4 14 8 SW 1036,6 2,3 0,0
22.01.2020 10:00:00 1,4 1,4 1,5 7 4 14 8 SW 1036,5 1,9 0,0
22.01.2020 09:00:00 1,0 0,8 1,0 11 6 14 8 SW 1036,3 1,2 0,1
22.01.2020 08:00:00 0,8 0,8 0,9 11 6 14 8 SW 1036,1 1,5 0,0
22.01.2020 07:00:00 0,7 0,6 0,8 11 6 18 10 WSW 1036,0 0,8 0,0

tt = temperature
td = dewpoint
tt 5cm = temperature 5cm
ff = wind speed
fx = gusts
dd = wind direction
ppp = reduced air pressure
vv = visibility
rr = precipitation

Next stations